Location: 22
(39.7117°N, 89.5929°W)
Time: 22:10:26
(UTC-06:00)

Vanguard 1 Rocket - All Passes

Search period start: 07 February 2023 00:00
Search period end: 17 February 2023 00:00
Orbit: 651 x 4224 km, 34.3° (Epoch: 07 February)

Date Brightness Start Highest point End Pass type
(mag) Time Alt. Az. Time Alt. Az. Time Alt. Az.
07 Feb - 09:12:39 10° S 09:17:34 21° SE 09:24:47 10° E daylight
07 Feb - 11:33:46 10° WSW 11:41:59 60° SSE 11:58:18 10° E daylight
07 Feb - 13:57:54 10° W 14:09:52 71° S 14:32:33 10° ESE daylight
07 Feb - 16:23:50 10° W 16:39:59 52° SSW 17:04:16 10° SE daylight
07 Feb - 18:54:12 10° W 19:10:07 25° SW 19:28:22 10° S visible
08 Feb - 10:23:47 10° SW 10:30:28 44° SSE 10:42:47 10° E daylight
08 Feb - 12:47:00 10° WSW 12:56:48 70° S 13:16:26 10° E daylight
08 Feb - 15:11:58 10° W 15:25:54 61° SSW 15:49:49 10° SE daylight
08 Feb - 17:39:39 10° W 17:56:09 35° SW 18:17:45 10° SSE visible
09 Feb - 09:14:31 10° SSW 09:19:40 26° SE 09:27:43 10° E daylight
09 Feb - 11:36:27 10° WSW 11:44:28 64° SSE 12:00:30 10° E daylight
09 Feb - 14:00:41 10° W 14:12:18 67° S 14:34:23 10° ESE daylight
09 Feb - 16:26:44 10° W 16:42:05 45° SSW 17:05:11 10° SE daylight
09 Feb - 18:58:46 10° W 19:11:55 19° SW 19:26:54 10° S visible
10 Feb - 08:07:17 10° SSE 08:09:20 12° SE 08:11:40 10° ESE daylight
10 Feb - 10:26:19 10° SW 10:32:51 50° SSE 10:45:09 10° E daylight
10 Feb - 12:49:47 10° W 12:59:19 69° S 13:18:28 10° ESE daylight
10 Feb - 15:14:49 10° W 15:28:11 54° SSW 15:51:09 10° SE daylight
10 Feb - 17:43:07 10° W 17:58:07 28° SW 18:17:36 10° S visible
11 Feb - 09:16:42 10° SSW 09:21:55 32° SE 09:30:25 10° E daylight
11 Feb - 11:39:13 10° WSW 11:47:01 66° S 12:02:41 10° E daylight
11 Feb - 14:03:29 10° W 14:14:45 62° SSW 14:36:04 10° ESE daylight
11 Feb - 16:29:49 10° W 16:44:14 38° SSW 17:05:42 10° SSE daylight
11 Feb - 19:05:21 10° WSW 19:13:53 13° SW 19:23:15 10° SSW visible
12 Feb - 08:08:08 10° S 08:11:28 16° SE 08:15:43 10° ESE daylight
12 Feb - 10:28:58 10° WSW 10:35:21 55° SSE 10:47:29 10° E daylight
12 Feb - 12:52:36 10° W 13:01:52 66° S 13:20:26 10° ESE daylight
12 Feb - 15:17:43 10° W 15:30:30 47° SSW 15:52:11 10° SE daylight
12 Feb - 17:47:11 10° W 18:00:10 22° SW 18:16:38 10° S visible
13 Feb - 09:19:04 10° SW 09:24:17 38° SSE 09:33:00 10° E daylight
13 Feb - 11:42:01 10° WSW 11:49:37 66° S 12:04:51 10° E daylight
13 Feb - 14:06:21 10° W 14:17:12 55° SSW 14:37:32 10° SE daylight
13 Feb - 16:33:09 10° W 16:46:25 31° SSW 17:05:45 10° SSE daylight
14 Feb - 08:09:52 10° SSW 08:13:43 21° SE 08:18:58 10° E daylight
14 Feb - 10:31:41 10° WSW 10:37:56 59° SSE 10:49:48 10° E daylight
14 Feb - 12:55:27 10° W 13:04:26 61° S 13:22:17 10° ESE daylight
14 Feb - 15:20:46 10° W 15:32:52 40° SSW 15:52:53 10° SSE daylight
14 Feb - 17:52:25 10° WSW 18:02:20 16° SW 18:14:17 10° SSW visible
15 Feb - 09:21:37 10° SW 09:26:47 44° SSE 09:35:32 10° E daylight
15 Feb - 11:44:51 10° W 11:52:15 64° S 12:06:58 10° ESE daylight
15 Feb - 14:09:17 10° W 14:19:41 48° SSW 14:38:47 10° SE daylight
15 Feb - 16:36:57 10° W 16:48:42 24° SW 17:05:08 10° S daylight
16 Feb - 08:11:59 10° SSW 08:16:05 27° SSE 08:21:54 10° E daylight
16 Feb - 10:34:28 10° WSW 10:40:34 61° S 10:52:07 10° E daylight
16 Feb - 12:58:20 10° W 13:07:01 55° SSW 13:23:58 10° ESE daylight
16 Feb - 15:24:03 10° W 15:35:17 32° SSW 15:53:10 10° SSE daylight
16 Feb - 18:03:19 10° SW 18:04:40 10° SW 18:06:04 10° SW visible
